Tracking 19832 objects as of 25-Aug-2019
HD Live streaming from Space Station
objects crossing your sky now

COSMOS 2251 DEB

Track COSMOS 2251 DEB now!
10-day predictions


NORAD ID: 35612
Int'l Code: 1993-036ANF
Perigee: 468.9 km
Apogee: 483.3 km
Inclination: 74.0 °
Period: 94.0 minutes
Semi major axis: 6847 km
RCS: 0.0062 m2 (small)
Launch date: June 16, 1993
Source: Commonwealth of Independent States (former USSR) (CIS)
Launch site: PLESETSK MISSILE AND SPACE COMPLEX (PKMTR)

Note: This is SATELLITE DEBRIS
aabbcc
Your satellite tracking list
Your tracking list is empty




NASA's NSSDC Master Catalog

Two Line Element Set (TLE):
1 35612U 93036ANF 19236.64275265 +.00010273 +00000-0 +33007-3 0  9995
2 35612 073.9838 323.0092 0010564 285.5497 074.4540 15.32302290550003
Source of the keplerian elements: AFSPC